Location: Moscow
(38.8570°N, 84.2291°W)
Time: 04:49:48
(UTC+00:00)

RS-15 - Visible Passes

Search period start: 08 March 2026 00:00
Search period end: 18 March 2026 00:00
Orbit: 1894 x 2151 km, 64.8° (Epoch: 7 March)

Date Brightness Start Highest point End Pass type
(mag) Time Alt. Az. Time Alt. Az. Time Alt. Az.
8 Mar 9.1 00:23:47 10° ESE 00:34:22 - ENE 00:25:27 11° ESE visible
8 Mar 8.1 02:26:05 10° SSW 02:41:51 37° NE 02:47:42 10° NE visible
8 Mar 8.8 04:40:00 10° WSW 04:49:53 38° NW 05:00:06 10° NNE visible
8 Mar 9.8 07:00:01 10° NW 07:06:55 18° N 07:14:00 10° NNE visible
8 Mar 9.6 09:16:11 10° NNW 09:25:11 26° NNE 09:34:27 10° E visible
8 Mar 8.5 11:28:27 10° NNW 11:40:03 72° NE 11:52:07 10° SE visible
9 Mar 7.9 01:50:40 10° S 02:00:58 51° ESE 02:11:26 10° NE visible
9 Mar 8.5 04:03:01 10° WSW 04:13:23 47° NW 04:24:04 10° NNE visible
9 Mar 9.7 06:22:21 10° WNW 06:29:40 19° NNW 06:37:12 10° NNE visible
9 Mar 9.8 08:39:55 10° NNW 08:48:09 22° NNE 08:56:37 10° ENE visible
9 Mar 8.7 10:52:26 10° NNW 11:03:48 58° NE 11:15:37 10° SE visible
10 Mar 8.2 01:15:37 10° S 01:25:15 38° ESE 01:34:58 10° NE visible
10 Mar 8.2 03:26:21 10° SW 03:37:02 59° NW 03:48:02 10° NNE visible
10 Mar 9.6 05:44:37 10° WNW 05:52:31 22° NNW 06:00:41 10° NNE visible
10 Mar 9.8 08:03:27 10° NNW 08:11:00 19° NNE 08:18:45 10° ENE visible
10 Mar 9.0 10:16:25 10° NNW 10:27:24 47° NE 10:38:48 10° ESE visible
11 Mar 8.5 00:41:04 10° SSE 00:49:38 28° ESE 00:58:16 10° NE visible
11 Mar 7.9 02:49:56 10° SW 03:00:49 74° WNW 03:12:00 10° NNE visible
11 Mar 9.4 05:06:56 10° W 05:15:31 25° NNW 05:24:23 10° NNE visible
11 Mar 9.9 07:26:43 10° NNW 07:33:44 18° N 07:40:56 10° NE visible
11 Mar 9.2 09:40:24 10° NNW 09:50:53 38° NE 10:01:43 10° ESE visible
12 Mar 8.8 00:07:14 10° SE 00:14:07 19° E 00:21:03 10° ENE visible
12 Mar 7.8 02:13:50 10° SSW 02:24:44 88° ESE 02:35:55 10° NNE visible
12 Mar 9.2 04:29:26 10° W 04:38:40 30° NW 04:48:13 10° NNE visible
12 Mar 9.9 06:49:39 10° NW 06:56:26 17° N 07:03:23 10° NE visible
12 Mar 9.5 09:04:20 10° NNW 09:14:11 31° NE 09:24:21 10° E visible
12 Mar 8.2 11:16:32 10° NNW 11:28:12 89° WSW 11:40:22 10° SSE visible
13 Mar 7.8 01:38:03 10° SSW 01:48:47 70° ESE 01:59:46 10° NE visible
13 Mar 9.0 03:52:10 10° WSW 04:01:58 37° NW 04:12:08 10° NNE visible
13 Mar 9.8 06:12:15 10° NW 06:19:07 18° N 06:26:10 10° NNE visible
13 Mar 9.6 08:28:12 10° NNW 08:37:20 26° NNE 08:46:44 10° E visible
13 Mar 8.4 10:40:28 10° NNW 10:52:05 75° ENE 11:04:11 10° SE visible
14 Mar 7.9 01:02:33 10° S 01:12:57 53° ESE 01:23:29 10° NE visible
14 Mar 8.7 03:15:09 10° WSW 03:25:27 46° NW 03:36:05 10° NNE visible
14 Mar 9.8 05:34:36 10° NW 05:41:51 19° NNW 05:49:18 10° NNE visible
14 Mar 9.7 07:51:57 10° NNW 08:00:20 22° NNE 08:08:56 10° ENE visible
14 Mar 8.6 10:04:26 10° NNW 10:15:52 60° NE 10:27:44 10° SE visible
15 Mar 8.2 00:27:28 10° S 00:37:13 40° ESE 00:47:05 10° NE visible
15 Mar 8.4 02:38:26 10° SW 02:49:05 57° NW 03:00:04 10° NNE visible
15 Mar 9.7 04:56:51 10° WNW 05:04:42 21° NNW 05:12:46 10° NNE visible
15 Mar 9.8 07:15:32 10° NNW 07:23:11 20° NNE 07:31:03 10° ENE visible
15 Mar 8.9 09:28:26 10° NNW 09:39:29 48° NE 09:50:59 10° ESE visible
16 Mar 8.1 02:02:00 10° SW 02:12:51 72° NW 02:24:01 10° NNE visible
16 Mar 9.5 04:19:10 10° W 04:27:40 25° NNW 04:36:26 10° NNE visible
16 Mar 9.9 06:38:50 10° NNW 06:45:57 18° N 06:53:13 10° NE visible
16 Mar 9.2 08:52:25 10° NNW 09:02:58 39° NE 09:13:55 10° ESE visible
16 Mar 8.1 11:04:42 10° NW 11:16:12 69° WSW 11:28:11 10° SSE visible
17 Mar 7.9 01:25:51 10° SSW 01:36:45 89° WNW 01:47:56 10° NNE visible
17 Mar 9.3 03:41:38 10° W 03:50:48 29° NW 04:00:15 10° NNE visible
17 Mar 9.9 06:01:49 10° NW 06:08:38 17° N 06:15:36 10° NE visible
17 Mar 9.4 08:16:21 10° NNW 08:26:19 32° NE 08:36:35 10° E visible
17 Mar 8.1 10:28:33 10° NNW 10:40:13 86° WSW 10:52:23 10° SSE visible
